KOSEN 1
1 49402U 21102H   25345.58670009  .00012769  00000-0  53447-3 0  9990
2 49402  97.3476  26.5003 0015578 144.8043 215.4227 15.23581312225422
HO-113
1 50466U 21131B   25345.60865694  .00001191  00000-0  38349-3 0  9994
2 50466  98.5049  74.0355 0003227 311.5987  48.4925 14.41110478208092
SNUGLITE 2
1 52899U 22065F   25345.64018601  .00002317  00000-0  45288-3 0  9996
2 52899  98.1923 126.1790 0006449 249.3323 110.7188 14.63831707183550
UmKA 1 (RS40S)
1 57172U 23091G   25345.62172872  .00011031  00000-0  54176-3 0  9993
2 57172  97.5344  40.0907 0014827  57.0284 303.2373 15.18145223135523
CubeBel-2 (EU11S)
1 57175U 23091K   25345.60491707  .00019016  00000-0  78571-3 0  9991
2 57175  97.5340  42.5508 0012115  60.0448 300.1990 15.23978704135682
RS-38S
1 57189U 23091Z   25345.59371053  .00042730  00000-0  14965-2 0  9990
2 57189  97.5364  46.9803 0008831  27.0342 333.1356 15.29324257135951
SONATE-2
1 59112U 24043Q   25345.35765062  .00048885  00000-0  10335-2 0  9991
2 59112  97.5327 121.5572 0008957 166.7724 193.3761 15.44964310 98765
MO-122
1 60209U 24125G   25345.49413060  .00056107  00000-0  11362-2 0  9991
2 60209  97.2526 195.8649 0014024 182.7553 177.3622 15.46130643 80418
GRBBeta
1 60237U 24128C   25345.48881518  .00009201  00000-0  64135-3 0  9991
2 60237  61.9894 153.9321 0056314  96.3970 264.3539 15.04734224 78003
Curium One
1 60242U 24128H   25345.47031628  .00018328  00000-0  11268-2 0  9993
2 60242  61.9788 148.9046 0055993  93.3182 267.4320 15.08853494 78099
ROBUSTA-3A
1 60243U 24128J   25345.47307858  .00013402  00000-0  84373-3 0  9991
2 60243  61.9862 150.4216 0056045  90.8094 269.9421 15.08184490 78073
CatSat
1 60246U 24125J   25345.11580484  .00052544  00000-0  12709-2 0  9993
2 60246  97.2322 192.5178 0034059 149.9897 210.3311 15.40348927 78274
HYPERVIEW-1G (RS66S)
1 61772U 24199AP  25345.64372218  .00048540  00000-0  93435-3 0  9998
2 61772  97.3213 215.0644 0007939 241.8176 118.2273 15.47714466105442
AO-123
1 61781U 24199AY  25345.62753064  .00026201  00000-0  84850-3 0  9999
2 61781  97.3251 211.0896 0012814 260.2192  99.7603 15.31925275105175
ZIMSAT 2
1 61783U 24199BA  25345.64978112  .00270699  00000-0  19531-2 0  9991
2 61783  97.3091 218.5577 0003430 195.3468 164.7693 15.72731497108839
HADES-R (SO-124)
1 62690U 25009CK  25345.48297792  .00270185  00000-0  34352-2 0  9998
2 62690  97.3875  68.0546 0001016 247.6128 112.5020 15.58460483 50584
HYDRA-T
1 62692U 25009CM  25345.46290123  .00318350  00000-0  37662-2 0  9993
2 62692  97.3867  68.2322 0001286 266.1587  93.9522 15.60213135 50598
JINJUSat 1B
1 63210U 25052A   25344.68806373  .00025073  00000-0  95824-3 0  9993
2 63210  97.4195 236.8565 0005710  51.6201 308.5549 15.26584850 41274
NUSHSAT 1
1 63211U 25052B   25345.66732956  .00027677  00000-0  10227-2 0  9993
2 63211  97.4176 237.9497 0005609  51.9764 308.1981 15.27681513 41433
TEVEL2-4
1 63213U 25052D   25345.27453628  .00033443  00000-0  12602-2 0  9995
2 63213  97.4099 237.1137 0005166  66.6339 293.5443 15.26995460 41361
TEVEL2-5
1 63214U 25052E   25344.75565111  .00026650  00000-0  10090-2 0  9990
2 63214  97.4097 236.5865 0005133  67.7181 292.4602 15.26885745 41282
TEVEL2-6
1 63215U 25052F   25345.15611420  .00026039  00000-0  98672-3 0  9995
2 63215  97.4103 236.9721 0005320  67.3702 292.8099 15.26860773 41344
TEVEL2-1
1 63217U 25052H   25345.46065140  .00032975  00000-0  12591-2 0  9994
2 63217  97.4074 237.0868 0005405  74.6738 285.5098 15.26558234 41389
TEVEL2-3
1 63218U 25052J   25345.65651541  .00025861  00000-0  98812-3 0  9999
2 63218  97.4079 237.2867 0005400  74.4585 285.7249 15.26587826 41412
TEVEL2-2
1 63219U 25052K   25345.65806807  .00025737  00000-0  98402-3 0  9994
2 63219  97.4075 237.2830 0005419  74.4293 285.7544 15.26567160 41412
TEVEL2-9
1 63237U 25052AD  25345.42320901  .00031299  00000-0  12492-2 0  9999
2 63237  97.4135 236.7585 0009286  85.5859 274.6440 15.25065290 41347
TEVEL2-7
1 63238U 25052AE  25345.43699015  .00030676  00000-0  12300-2 0  9992
2 63238  97.4144 236.7465 0009411  85.6220 274.6093 15.24915144 41343
TEVEL2-8
1 63239U 25052AF  25345.44260659  .00030934  00000-0  12412-2 0  9993
2 63239  97.4141 236.7368 0009462  85.7242 274.5077 15.24889301 41340
HYDRA-W
1 63490U 25052BL  25345.66319095  .00086170  00000-0  20546-2 0  9995
2 63490  97.4064 239.4275 0011651  74.8996 285.3538 15.41179517 41553
HADES-ICM (SO-125)
1 63492U 25052BN  25345.46158594  .00111546  00000-0  28263-2 0  9990
2 63492  97.4067 238.9588 0011753  78.1884 282.0679 15.39221518 41506
Dragonfly
1 65729U 98067XH  25345.46680131  .00266351  00000-0  19873-2 0  9990
2 65729  51.6236 142.2802 0006691 270.0967  89.9264 15.71355930 12961
RSP-03
1 65732U 98067XL  25345.46479526  .00197326  00000-0  16947-2 0  9992
2 65732  51.6260 143.0256 0005826 242.1359 117.9048 15.68184189 12962
GHS-01
1 65733U 98067XM  25345.16682996  .00274520  00000-0  18349-2 0  9997
2 65733  51.6283 143.2841 0006984 269.5740  90.4459 15.73916996 12936
BOTAN
1 65942U 98067XP  25345.43932568  .00166728  00000-0  18042-2 0  9992
2 65942  51.6280 145.8622 0003282 229.3853 130.6856 15.62506210  9663
BEE-1000
1 66650U 25274A   25345.61206235  .00003123  00000-0  31599-3 0  9996
2 66650  97.7386 272.8204 0010387 255.6819 104.3246 14.91655105  2239
SPIRONE
1 66657U 25274H   25345.53746917  .00005067  00000-0  49920-3 0  9996
2 66657  97.7381 272.7639 0010839 280.5004  79.4994 14.92440783  2223
K-HERO
1 66660U 25274L   25345.53239436  .00004550  00000-0  44303-3 0  9999
2 66660  97.7386 272.7716 0012741 285.4538  74.5274 14.92947969  2223
SNUGLITE-III DURI
1 66661U 25274M   25345.59792177  .00003944  00000-0  38340-3 0  9992
2 66661  97.7384 272.8391 0013430 286.3435  73.6308 14.93087513  2234
SilverSat
1 66909U 98067XV  25345.63090403  .00080084  00000-0  13284-2 0  9994
2 66909  51.6302 147.8859 0004545 221.0614 139.0034 15.51411280  1442
CEVROSAT1
1 98526U 25248E   25313.13142326  .00000000  00000-0  19360-3 0    02
2 98526  45.4084 218.4764 0001315 254.8982 242.1062 15.17981583    02
